User: anonymous   Login
Location: Unspecified
(0.0000°N, 0.0000°E)
Time: 11:31:27
(UTC+00:00)
Language:

Explorer 11/Cluster Stage 4 - Orbit

View from above orbital plane
View from above orbital plane
View from above satellite
View from above satellite

Ground track
Ground track

The orbit data is extracted from the following two-line orbital elements,

1 00107U 61013A   15115.77898475  .00002289  00000-0  29295-3 0  9998
2 00107 028.7912 345.9879 0555318 203.2977 233.4200 14.06804777700590
Epoch (UTC): 25 April 2015 18:41:44
Eccentricity: 0.0555318
inclination: 28.7912°
perigee height: 468 km
apogee height: 1273 km
right ascension of ascending node: 345.9879°
argument of perigee: 203.2977°
revolutions per day: 14.06804777
mean anomaly at epoch: 233.4200°
orbit number at epoch: 70059

The dashed part of the orbit path shows where the satellite is in the earth's shadow,  

DLR